| time (UTC) | temp F | wind direction | speed knots | gust knots | rain 1hr in | rain 24hr in | rain mn in | humidity % | barometer mb |
| 20260906141003 | 74 | 349 | 0.9 | 1.7 | 0.00 | 0.00 | 0.00 | 88 | 1017.8 |
| 20260906140508 | 74 | 32 | 0.0 | 1.7 | 0.00 | 0.00 | 0.00 | 89 | 1017.7 |
| 20260906140219 | 73 | 55 | 0.0 | 0.9 | 0.00 | 0.00 | 0.00 | 89 | 1017.6 |
| 20260906135503 | 73 | 3 | 0.0 | 0.9 | 0.00 | 0.00 | 0.00 | 89 | 1017.8 |
| 20260906135003 | 73 | 12 | 0.9 | 2.6 | 0.00 | 0.00 | 0.00 | 89 | 1018.1 |
| 20260906134718 | 73 | 52 | 0.9 | 2.6 | 0.00 | 0.00 | 0.00 | 89 | 1017.9 |
| 20260906134003 | 73 | 328 | 0.9 | 2.6 | 0.00 | 0.00 | 0.00 | 89 | 1017.9 |
| 20260906133503 | 73 | 247 | 0.9 | 2.6 | 0.00 | 0.00 | 0.00 | 89 | 1018.0 |
| 20260906133003 | 72 | 242 | 0.0 | 1.7 | 0.00 | 0.00 | 0.00 | 90 | 1017.8 |
| 20260906132504 | 72 | 8 | 0.9 | 2.6 | 0.00 | 0.00 | 0.00 | 90 | 1017.8 |
| 20260906132223 | 72 | 2 | 0.9 | 2.6 | 0.00 | 0.00 | 0.00 | 90 | 1017.9 |
| 20260906131503 | 72 | 14 | 0.9 | 2.6 | 0.00 | 0.00 | 0.00 | 90 | 1017.7 |
| 20260906131217 | 72 | 15 | 0.9 | 1.7 | 0.00 | 0.00 | 0.00 | 90 | 1017.9 |
| 20260906130718 | 72 | 26 | 0.9 | 1.7 | 0.00 | 0.00 | 0.00 | 90 | 1017.6 |
| 20260906130003 | 71 | 358 | 0.0 | 1.7 | 0.00 | 0.00 | 0.00 | 90 | 1017.7 |
| 20260906125503 | 71 | 286 | 0.0 | 1.7 | 0.00 | 0.00 | 0.00 | 90 | 1017.7 |
| 20260906125008 | 71 | 114 | 0.0 | 1.7 | 0.00 | 0.00 | 0.00 | 91 | 1017.7 |
| 20260906124503 | 71 | 104 | 0.0 | 0.9 | 0.00 | 0.00 | 0.00 | 91 | 1017.5 |
| 20260906124003 | 71 | 114 | 0.0 | 1.7 | 0.00 | 0.00 | 0.00 | 91 | 1017.2 |
| 20260906123503 | 71 | 124 | 0.0 | 1.7 | 0.00 | 0.00 | 0.00 | 91 | 1017.4 |
| 20260906123003 | 71 | 118 | 0.0 | 1.7 | 0.00 | 0.00 | 0.00 | 91 | 1017.1 |
| 20260906122503 | 71 | 85 | 0.0 | 1.7 | 0.00 | 0.00 | 0.00 | 91 | 1017.1 |
| 20260906122003 | 71 | 62 | 0.0 | 1.7 | 0.00 | 0.00 | 0.00 | 91 | 1017.1 |
| 20260906121503 | 71 | 176 | 0.0 | 2.6 | 0.00 | 0.00 | 0.00 | 91 | 1017.0 |
| 20260906121003 | 71 | 184 | 0.0 | 2.6 | 0.00 | 0.00 | 0.00 | 91 | 1017.1 |
| 20260906120503 | 71 | 92 | 0.0 | 1.7 | 0.00 | 0.00 | 0.00 | 91 | 1017.0 |
| 20260906120003 | 70 | 90 | 0.0 | 1.7 | 0.00 | 0.00 | 0.00 | 91 | 1016.7 |
| 20260906115503 | 70 | 104 | 0.0 | 1.7 | 0.00 | 0.00 | 0.00 | 91 | 1016.9 |
| 20260906115216 | 70 | 103 | 0.0 | 1.7 | 0.00 | 0.00 | 0.00 | 91 | 1016.9 |
| 20260906114717 | 70 | 104 | 0.0 | 0.9 | 0.00 | 0.00 | 0.00 | 91 | 1017.0 |
| 20260906114003 | 70 | 115 | 0.0 | 0.9 | 0.00 | 0.00 | 0.00 | 90 | 1016.9 |
| 20260906113503 | 70 | 61 | 0.0 | 0.9 | 0.00 | 0.00 | 0.00 | 90 | 1017.1 |
| 20260906113003 | 70 | 48 | 0.0 | 0.9 | 0.00 | 0.00 | 0.00 | 90 | 1016.8 |
| 20260906112503 | 70 | 91 | 0.0 | 0.9 | 0.00 | 0.00 | 0.00 | 90 | 1016.8 |
| 20260906112003 | 70 | 80 | 0.0 | 1.7 | 0.00 | 0.00 | 0.00 | 90 | 1016.7 |
| 20260906111723 | 70 | 100 | 0.0 | 1.7 | 0.00 | 0.00 | 0.00 | 90 | 1016.6 |
| 20260906111003 | 70 | 158 | 0.0 | 2.6 | 0.00 | 0.00 | 0.00 | 89 | 1016.8 |
| 20260906110503 | 70 | 141 | 0.0 | 2.6 | 0.00 | 0.00 | 0.00 | 89 | 1016.6 |
| 20260906110003 | 70 | 101 | 0.0 | 2.6 | 0.00 | 0.00 | 0.00 | 90 | 1016.5 |
| 20260906105504 | 70 | 89 | 0.0 | 5.2 | 0.00 | 0.00 | 0.00 | 90 | 1016.7 |
| 20260906105003 | 70 | 80 | 0.9 | 5.2 | 0.00 | 0.00 | 0.00 | 90 | 1016.3 |
| 20260906104503 | 70 | 12 | 0.0 | 1.7 | 0.00 | 0.00 | 0.00 | 90 | 1016.2 |
| 20260906104003 | 70 | 0 | 0.0 | 0.9 | 0.00 | 0.00 | 0.00 | 90 | 1016.3 |
| 20260906103723 | 70 | 43 | 0.0 | 2.6 | 0.00 | 0.00 | 0.00 | 90 | 1016.4 |
| 20260906103003 | 70 | 14 | 0.9 | 2.6 | 0.00 | 0.00 | 0.00 | 90 | 1016.3 |
| 20260906102503 | 70 | 4 | 0.9 | 1.7 | 0.00 | 0.00 | 0.00 | 90 | 1016.3 |
| 20260906102003 | 70 | 69 | 0.0 | 0.9 | 0.00 | 0.00 | 0.00 | 90 | 1016.3 |
| 20260906101503 | 70 | 46 | 0.0 | 0.9 | 0.00 | 0.00 | 0.00 | 90 | 1016.0 |
| 20260906101008 | 70 | 0 | 0.0 | 0.0 | 0.00 | 0.00 | 0.00 | 90 | 1016.0 |
| 20260906100503 | 70 | 35 | 0.0 | 0.9 | 0.00 | 0.00 | 0.00 | 90 | 1015.9 |
| 20260906100217 | 70 | 39 | 0.0 | 0.9 | 0.00 | 0.00 | 0.00 | 89 | 1015.9 |
| 20260906095718 | 71 | 43 | 0.0 | 0.9 | 0.00 | 0.00 | 0.00 | 89 | 1016.1 |
| 20260906095008 | 71 | 70 | 0.0 | 1.7 | 0.00 | 0.00 | 0.00 | 89 | 1016.0 |
| 20260906094508 | 71 | 77 | 0.0 | 2.6 | 0.00 | 0.00 | 0.00 | 89 | 1016.0 |
| 20260906094003 | 71 | 359 | 0.0 | 2.6 | 0.00 | 0.00 | 0.00 | 89 | 1016.0 |
| 20260906093503 | 71 | 341 | 0.0 | 1.7 | 0.00 | 0.00 | 0.00 | 89 | 1015.8 |
| 20260906093003 | 71 | 40 | 0.0 | 0.9 | 0.00 | 0.00 | 0.00 | 89 | 1016.0 |
| 20260906092503 | 71 | 165 | 0.0 | 2.6 | 0.00 | 0.00 | 0.00 | 89 | 1015.8 |
| 20260906092008 | 72 | 167 | 0.0 | 2.6 | 0.00 | 0.00 | 0.00 | 89 | 1016.0 |
| 20260906091503 | 72 | 277 | 0.0 | 0.9 | 0.00 | 0.00 | 0.00 | 89 | 1016.0 |
| 20260906091003 | 72 | 282 | 0.0 | 0.9 | 0.00 | 0.00 | 0.00 | 89 | 1016.0 |
| 20260906090503 | 72 | 267 | 0.0 | 0.9 | 0.00 | 0.00 | 0.00 | 89 | 1015.8 |
| 20260906090003 | 72 | 0 | 0.0 | 0.9 | 0.00 | 0.00 | 0.00 | 89 | 1015.7 |
| 20260906085503 | 72 | 81 | 0.0 | 2.6 | 0.00 | 0.00 | 0.00 | 89 | 1015.8 |
| 20260906085003 | 72 | 61 | 0.0 | 2.6 | 0.00 | 0.00 | 0.00 | 89 | 1015.6 |
| 20260906084503 | 72 | 44 | 0.0 | 1.7 | 0.00 | 0.00 | 0.00 | 89 | 1015.7 |
| 20260906084005 | 72 | 37 | 0.0 | 1.7 | 0.00 | 0.00 | 0.00 | 89 | 1015.7 |
| 20260906083503 | 73 | 83 | 0.0 | 1.7 | 0.00 | 0.00 | 0.00 | 89 | 1015.5 |
| 20260906083003 | 73 | 117 | 0.0 | 0.9 | 0.00 | 0.00 | 0.00 | 89 | 1015.7 |
| 20260906082503 | 73 | 104 | 0.0 | 1.7 | 0.00 | 0.00 | 0.00 | 88 | 1015.5 |
| 20260906082003 | 73 | 118 | 0.0 | 1.7 | 0.00 | 0.00 | 0.00 | 88 | 1015.6 |
| 20260906081718 | 73 | 140 | 0.0 | 1.7 | 0.00 | 0.00 | 0.00 | 88 | 1015.4 |
| 20260906081219 | 73 | 220 | 0.0 | 0.9 | 0.00 | 0.00 | 0.00 | 88 | 1015.7 |
| 20260906080503 | 74 | 212 | 0.0 | 1.7 | 0.00 | 0.00 | 0.00 | 88 | 1015.6 |
| 20260906080003 | 74 | 192 | 0.0 | 1.7 | 0.00 | 0.00 | 0.00 | 88 | 1015.3 |
| 20260906075503 | 74 | 67 | 0.0 | 1.7 | 0.00 | 0.00 | 0.00 | 88 | 1015.3 |
| 20260906075003 | 74 | 347 | 0.0 | 1.7 | 0.00 | 0.00 | 0.00 | 88 | 1015.6 |
| 20260906074503 | 74 | 215 | 0.0 | 1.7 | 0.00 | 0.00 | 0.00 | 88 | 1015.5 |
| 20260906074003 | 75 | 70 | 0.0 | 1.7 | 0.00 | 0.00 | 0.00 | 88 | 1015.7 |
| 20260906073503 | 75 | 47 | 0.0 | 1.7 | 0.00 | 0.00 | 0.00 | 88 | 1015.4 |
| 20260906073223 | 75 | 41 | 0.0 | 0.9 | 0.00 | 0.00 | 0.00 | 88 | 1015.7 |
| 20260906072720 | 75 | 21 | 0.0 | 0.9 | 0.00 | 0.00 | 0.00 | 88 | 1015.7 |
| 20260906072008 | 75 | 345 | 0.0 | 1.7 | 0.00 | 0.00 | 0.00 | 88 | 1015.6 |
| 20260906071503 | 75 | 340 | 0.0 | 1.7 | 0.00 | 0.00 | 0.00 | 88 | 1015.9 |
| 20260906071003 | 75 | 285 | 0.0 | 1.7 | 0.00 | 0.00 | 0.00 | 88 | 1015.6 |
| 20260906070719 | 75 | 188 | 0.0 | 1.7 | 0.00 | 0.00 | 0.00 | 88 | 1015.7 |
| 20260906070003 | 75 | 9 | 0.0 | 1.7 | 0.00 | 0.00 | 0.00 | 88 | 1015.8 |
| 20260906065503 | 75 | 14 | 0.9 | 1.7 | 0.00 | 0.00 | 0.00 | 88 | 1015.8 |
| 20260906065003 | 75 | 349 | 0.0 | 1.7 | 0.00 | 0.00 | 0.00 | 88 | 1015.7 |
| 20260906064508 | 75 | 352 | 0.0 | 0.9 | 0.00 | 0.00 | 0.00 | 88 | 1015.7 |
| 20260906064003 | 75 | 68 | 0.0 | 1.7 | 0.00 | 0.00 | 0.00 | 88 | 1015.8 |
| 20260906063503 | 75 | 74 | 0.0 | 1.7 | 0.00 | 0.00 | 0.00 | 88 | 1015.7 |
| 20260906063003 | 75 | 70 | 0.0 | 0.9 | 0.00 | 0.00 | 0.00 | 88 | 1015.8 |
| 20260906062503 | 75 | 71 | 0.0 | 0.9 | 0.00 | 0.00 | 0.00 | 88 | 1015.7 |
| 20260906062003 | 75 | 68 | 0.0 | 0.9 | 0.00 | 0.00 | 0.00 | 88 | 1015.6 |
| 20260906061508 | 75 | 64 | 0.0 | 0.9 | 0.00 | 0.00 | 0.00 | 88 | 1015.6 |
| 20260906061218 | 75 | 61 | 0.0 | 0.9 | 0.00 | 0.00 | 0.00 | 88 | 1015.4 |
| 20260906060719 | 75 | 61 | 0.0 | 0.9 | 0.00 | 0.00 | 0.00 | 88 | 1015.6 |
| 20260906060003 | 76 | 61 | 0.0 | 0.9 | 0.00 | 0.00 | 0.00 | 87 | 1015.8 |
| 20260906055503 | 76 | 0 | 0.0 | 0.0 | 0.00 | 0.00 | 0.00 | 87 | 1015.6 |
| 20260906055218 | 76 | 0 | 0.0 | 0.9 | 0.00 | 0.00 | 0.00 | 87 | 1015.6 |
| 20260906054503 | 77 | 60 | 0.0 | 1.7 | 0.00 | 0.00 | 0.00 | 86 | 1015.6 |
| 20260906054004 | 77 | 60 | 0.0 | 1.7 | 0.00 | 0.00 | 0.00 | 86 | 1015.6 |
| 20260906053503 | 77 | 57 | 0.0 | 1.7 | 0.00 | 0.00 | 0.00 | 86 | 1015.5 |
| 20260906053008 | 77 | 41 | 0.0 | 1.7 | 0.00 | 0.00 | 0.00 | 85 | 1015.4 |
| 20260906052503 | 78 | 51 | 0.0 | 0.9 | 0.00 | 0.00 | 0.00 | 85 | 1015.6 |
| 20260906052216 | 78 | 42 | 0.0 | 1.7 | 0.00 | 0.00 | 0.00 | 85 | 1015.6 |
| 20260906051503 | 78 | 52 | 0.0 | 1.7 | 0.00 | 0.00 | 0.00 | 86 | 1015.5 |
| 20260906051003 | 78 | 64 | 0.0 | 1.7 | 0.00 | 0.00 | 0.00 | 86 | 1015.3 |
| 20260906050503 | 78 | 87 | 0.0 | 0.9 | 0.00 | 0.00 | 0.00 | 86 | 1015.0 |
| 20260906050003 | 78 | 97 | 0.0 | 1.7 | 0.00 | 0.00 | 0.00 | 86 | 1015.0 |
| 20260906045717 | 78 | 88 | 0.0 | 1.7 | 0.00 | 0.00 | 0.00 | 86 | 1015.0 |
| 20260906045003 | 79 | 72 | 0.9 | 1.7 | 0.00 | 0.00 | 0.00 | 86 | 1014.9 |
| 20260906044503 | 79 | 68 | 0.0 | 1.7 | 0.00 | 0.00 | 0.00 | 86 | 1014.8 |
| 20260906044003 | 79 | 59 | 0.0 | 1.7 | 0.00 | 0.00 | 0.00 | 85 | 1014.8 |
| 20260906043503 | 79 | 70 | 0.0 | 1.7 | 0.00 | 0.00 | 0.00 | 85 | 1014.8 |
| 20260906043003 | 80 | 79 | 0.9 | 1.7 | 0.00 | 0.00 | 0.00 | 85 | 1014.6 |
| 20260906042503 | 80 | 146 | 0.9 | 1.7 | 0.00 | 0.00 | 0.00 | 84 | 1014.6 |
| 20260906042008 | 80 | 175 | 0.0 | 1.7 | 0.00 | 0.00 | 0.00 | 84 | 1014.8 |
| 20260906041505 | 80 | 138 | 0.0 | 1.7 | 0.00 | 0.00 | 0.00 | 84 | 1014.7 |
| 20260906041008 | 81 | 81 | 0.0 | 1.7 | 0.00 | 0.00 | 0.00 | 83 | 1014.8 |
| 20260906040503 | 81 | 71 | 0.0 | 1.7 | 0.00 | 0.00 | 0.00 | 83 | 1014.8 |
| 20260906040003 | 81 | 143 | 0.9 | 3.5 | 0.00 | 0.00 | 0.00 | 83 | 1014.7 |
| 20260906035503 | 81 | 147 | 0.9 | 3.5 | 0.00 | 0.00 | 0.00 | 83 | 1014.6 |
| 20260906035003 | 81 | 89 | 0.9 | 1.7 | 0.00 | 0.00 | 0.00 | 83 | 1014.3 |
| 20260906034503 | 81 | 67 | 0.0 | 1.7 | 0.00 | 0.00 | 0.00 | 83 | 1014.4 |
| 20260906034003 | 81 | 72 | 0.0 | 1.7 | 0.00 | 0.00 | 0.00 | 83 | 1014.2 |
| 20260906033503 | 81 | 188 | 0.0 | 1.7 | 0.00 | 0.00 | 0.00 | 83 | 1014.6 |
| 20260906033003 | 82 | 185 | 0.0 | 1.7 | 0.00 | 0.00 | 0.00 | 83 | 1014.3 |
| 20260906032503 | 82 | 119 | 0.0 | 1.7 | 0.00 | 0.00 | 0.00 | 83 | 1014.3 |
| 20260906032003 | 82 | 343 | 0.0 | 2.6 | 0.00 | 0.00 | 0.00 | 83 | 1014.2 |
| 20260906031503 | 82 | 68 | 0.9 | 2.6 | 0.00 | 0.00 | 0.00 | 83 | 1014.4 |
| 20260906031003 | 82 | 74 | 0.9 | 2.6 | 0.00 | 0.00 | 0.00 | 83 | 1014.0 |
| 20260906030503 | 82 | 27 | 0.0 | 1.7 | 0.00 | 0.00 | 0.00 | 83 | 1013.9 |
| 20260906030003 | 82 | 360 | 0.0 | 0.9 | 0.00 | 0.00 | 0.00 | 83 | 1014.0 |
| 20260906025503 | 82 | 0 | 0.0 | 0.0 | 0.00 | 0.00 | 0.00 | 82 | 1013.9 |
| 20260906025003 | 82 | 0 | 0.0 | 0.9 | 0.00 | 0.00 | 0.00 | 81 | 1013.9 |
| 20260906024508 | 83 | 33 | 0.0 | 0.9 | 0.00 | 0.00 | 0.00 | 80 | 1014.0 |
| 20260906024219 | 83 | 33 | 0.0 | 0.9 | 0.00 | 0.00 | 0.00 | 80 | 1014.0 |
| 20260906023503 | 83 | 33 | 0.0 | 1.7 | 0.00 | 0.00 | 0.00 | 79 | 1014.0 |
| 20260906023003 | 84 | 33 | 0.9 | 1.7 | 0.00 | 0.00 | 0.00 | 78 | 1013.8 |
| 20260906022503 | 84 | 21 | 0.9 | 1.7 | 0.00 | 0.00 | 0.00 | 78 | 1013.8 |
| 20260906022003 | 84 | 358 | 0.0 | 1.7 | 0.00 | 0.00 | 0.00 | 78 | 1013.6 |
| 20260906021503 | 84 | 346 | 0.0 | 1.7 | 0.00 | 0.00 | 0.00 | 77 | 1013.6 |
| 20260906021003 | 84 | 347 | 0.9 | 1.7 | 0.00 | 0.00 | 0.00 | 77 | 1013.7 |
| 20260906020503 | 85 | 357 | 0.9 | 2.6 | 0.00 | 0.00 | 0.00 | 77 | 1013.7 |
| 20260906020003 | 85 | 14 | 0.9 | 2.6 | 0.00 | 0.00 | 0.00 | 76 | 1013.5 |
| 20260906015503 | 84 | 30 | 0.0 | 2.6 | 0.00 | 0.00 | 0.00 | 77 | 1013.5 |
| 20260906015220 | 84 | 41 | 0.0 | 1.7 | 0.00 | 0.00 | 0.00 | 76 | 1013.4 |
| 20260906014718 | 84 | 41 | 0.0 | 0.9 | 0.00 | 0.00 | 0.00 | 76 | 1013.5 |
| 20260906014003 | 85 | 41 | 0.0 | 0.9 | 0.00 | 0.00 | 0.00 | 75 | 1013.0 |
| 20260906013503 | 85 | 41 | 0.0 | 0.9 | 0.00 | 0.00 | 0.00 | 74 | 1013.0 |
| 20260906013003 | 86 | 40 | 0.0 | 0.9 | 0.00 | 0.00 | 0.00 | 73 | 1012.9 |
| 20260906012503 | 86 | 29 | 0.9 | 2.6 | 0.00 | 0.00 | 0.00 | 72 | 1013.0 |
| 20260906012008 | 87 | 13 | 0.9 | 2.6 | 0.00 | 0.00 | 0.00 | 72 | 1013.0 |
| 20260906011503 | 87 | 360 | 0.9 | 2.6 | 0.00 | 0.00 | 0.00 | 71 | 1013.0 |
| 20260906011003 | 87 | 358 | 0.9 | 2.6 | 0.00 | 0.00 | 0.00 | 71 | 1012.8 |
| 20260906010717 | 87 | 356 | 0.9 | 2.6 | 0.00 | 0.00 | 0.00 | 71 | 1013.0 |
| 20260906010003 | 87 | 355 | 0.9 | 2.6 | 0.00 | 0.00 | 0.00 | 70 | 1012.7 |
| 20260906005503 | 88 | 346 | 0.9 | 2.6 | 0.00 | 0.00 | 0.00 | 70 | 1012.7 |
| 20260906005003 | 88 | 346 | 0.9 | 2.6 | 0.00 | 0.00 | 0.00 | 69 | 1012.9 |
| 20260906004503 | 88 | 10 | 0.9 | 2.6 | 0.00 | 0.00 | 0.00 | 69 | 1012.5 |
| 20260906004003 | 88 | 26 | 0.9 | 2.6 | 0.00 | 0.00 | 0.00 | 68 | 1012.3 |
| 20260906003503 | 89 | 354 | 0.9 | 2.6 | 0.00 | 0.00 | 0.00 | 68 | 1012.4 |
| 20260906003008 | 89 | 359 | 0.9 | 3.5 | 0.00 | 0.00 | 0.00 | 68 | 1012.5 |
| 20260906002503 | 89 | 13 | 0.9 | 3.5 | 0.00 | 0.00 | 0.00 | 67 | 1012.5 |
| 20260906002003 | 89 | 4 | 0.9 | 1.7 | 0.00 | 0.00 | 0.00 | 67 | 1012.5 |
| 20260906001503 | 90 | 355 | 0.0 | 1.7 | 0.00 | 0.00 | 0.00 | 67 | 1012.5 |
| 20260906001003 | 90 | 4 | 0.0 | 1.7 | 0.00 | 0.00 | 0.00 | 67 | 1012.3 |
| 20260906000503 | 90 | 40 | 0.9 | 1.7 | 0.00 | 0.00 | 0.00 | 66 | 1012.4 |
| 20260906000003 | 91 | 48 | 0.9 | 2.6 | 0.00 | 0.00 | 0.00 | 65 | 1012.6 |
| 20260905235503 | 91 | 23 | 0.9 | 2.6 | 0.00 | 0.00 | 0.00 | 64 | 1012.6 |
| 20260905235003 | 92 | 17 | 0.9 | 2.6 | 0.00 | 0.00 | 0.00 | 64 | 1012.5 |
| 20260905234503 | 92 | 34 | 0.9 | 3.5 | 0.00 | 0.00 | 0.00 | 63 | 1012.9 |
| 20260905234005 | 93 | 43 | 0.9 | 3.5 | 0.00 | 0.00 | 0.00 | 63 | 1012.6 |
| 20260905233719 | 93 | 41 | 0.9 | 3.5 | 0.00 | 0.00 | 0.00 | 62 | 1012.5 |
| 20260905233003 | 94 | 37 | 1.7 | 5.2 | 0.00 | 0.00 | 0.00 | 61 | 1012.6 |
| 20260905232503 | 94 | 26 | 1.7 | 5.2 | 0.00 | 0.00 | 0.00 | 59 | 1012.6 |
| 20260905232003 | 94 | 15 | 1.7 | 5.2 | 0.00 | 0.00 | 0.00 | 59 | 1012.5 |
| 20260905231508 | 95 | 23 | 1.7 | 3.5 | 0.00 | 0.00 | 0.00 | 58 | 1012.5 |
| 20260905231008 | 95 | 27 | 1.7 | 5.2 | 0.00 | 0.00 | 0.00 | 57 | 1012.3 |
| 20260905230716 | 95 | 24 | 1.7 | 6.1 | 0.00 | 0.00 | 0.00 | 57 | 1012.6 |
| 20260905230003 | 96 | 27 | 1.7 | 6.1 | 0.00 | 0.00 | 0.00 | 56 | 1012.6 |
| 20260905225508 | 96 | 10 | 0.9 | 5.2 | 0.00 | 0.00 | 0.00 | 56 | 1012.5 |
| 20260905225003 | 96 | 16 | 1.7 | 5.2 | 0.00 | 0.00 | 0.00 | 53 | 1012.5 |
| 20260905224503 | 96 | 21 | 1.7 | 5.2 | 0.00 | 0.00 | 0.00 | 52 | 1012.5 |
| 20260905224217 | 96 | 18 | 1.7 | 7.0 | 0.00 | 0.00 | 0.00 | 51 | 1012.3 |
| 20260905223503 | 97 | 354 | 1.7 | 7.0 | 0.00 | 0.00 | 0.00 | 51 | 1012.3 |
| 20260905223219 | 97 | 352 | 1.7 | 7.0 | 0.00 | 0.00 | 0.00 | 51 | 1012.2 |
| 20260905222503 | 97 | 344 | 1.7 | 6.1 | 0.00 | 0.00 | 0.00 | 51 | 1012.4 |
| 20260905222008 | 97 | 350 | 2.6 | 6.1 | 0.00 | 0.00 | 0.00 | 51 | 1012.2 |
| 20260905221503 | 97 | 353 | 1.7 | 6.1 | 0.00 | 0.00 | 0.00 | 51 | 1012.4 |
| 20260905221003 | 97 | 342 | 2.6 | 7.0 | 0.00 | 0.00 | 0.00 | 51 | 1012.3 |
| 20260905220503 | 97 | 351 | 2.6 | 7.0 | 0.00 | 0.00 | 0.00 | 51 | 1012.4 |
| 20260905220003 | 98 | 356 | 2.6 | 7.0 | 0.00 | 0.00 | 0.00 | 50 | 1012.5 |
| 20260905215508 | 98 | 347 | 2.6 | 6.1 | 0.00 | 0.00 | 0.00 | 50 | 1012.5 |
| 20260905215003 | 98 | 359 | 2.6 | 6.1 | 0.00 | 0.00 | 0.00 | 50 | 1012.6 |
| 20260905214503 | 98 | 357 | 2.6 | 7.0 | 0.00 | 0.00 | 0.00 | 49 | 1012.5 |
| 20260905214003 | 98 | 353 | 2.6 | 7.0 | 0.00 | 0.00 | 0.00 | 48 | 1012.6 |
| 20260905213718 | 98 | 356 | 2.6 | 6.1 | 0.00 | 0.00 | 0.00 | 48 | 1012.4 |
| 20260905213219 | 98 | 3 | 1.7 | 6.1 | 0.00 | 0.00 | 0.00 | 48 | 1012.4 |
| 20260905212508 | 98 | 4 | 2.6 | 7.8 | 0.00 | 0.00 | 0.00 | 48 | 1012.4 |
| 20260905212005 | 99 | 1 | 2.6 | 7.8 | 0.00 | 0.00 | 0.00 | 47 | 1012.6 |
| 20260905211503 | 99 | 7 | 2.6 | 7.8 | 0.00 | 0.00 | 0.00 | 47 | 1012.1 |
| 20260905211003 | 99 | 13 | 2.6 | 6.1 | 0.00 | 0.00 | 0.00 | 48 | 1012.3 |
| 20260905210503 | 98 | 10 | 2.6 | 6.1 | 0.00 | 0.00 | 0.00 | 48 | 1012.5 |
| 20260905210004 | 98 | 9 | 2.6 | 7.8 | 0.00 | 0.00 | 0.00 | 48 | 1012.5 |
| 20260905205503 | 99 | 14 | 2.6 | 7.8 | 0.00 | 0.00 | 0.00 | 49 | 1012.6 |
| 20260905205003 | 99 | 12 | 2.6 | 6.1 | 0.00 | 0.00 | 0.00 | 49 | 1012.5 |
| 20260905204503 | 99 | 360 | 2.6 | 6.1 | 0.00 | 0.00 | 0.00 | 48 | 1012.7 |
| 20260905204003 | 99 | 3 | 2.6 | 6.1 | 0.00 | 0.00 | 0.00 | 49 | 1012.8 |
| 20260905203503 | 99 | 2 | 2.6 | 6.1 | 0.00 | 0.00 | 0.00 | 49 | 1012.7 |
| 20260905203003 | 99 | 11 | 2.6 | 6.1 | 0.00 | 0.00 | 0.00 | 49 | 1012.7 |
| 20260905202503 | 99 | 5 | 2.6 | 6.1 | 0.00 | 0.00 | 0.00 | 50 | 1012.9 |
| 20260905202003 | 99 | 358 | 1.7 | 6.1 | 0.00 | 0.00 | 0.00 | 50 | 1012.9 |
| 20260905201505 | 99 | 12 | 2.6 | 6.1 | 0.00 | 0.00 | 0.00 | 50 | 1013.0 |
| 20260905201003 | 100 | 20 | 2.6 | 6.1 | 0.00 | 0.00 | 0.00 | 47 | 1012.9 |
| 20260905200503 | 100 | 9 | 2.6 | 6.1 | 0.00 | 0.00 | 0.00 | 48 | 1012.8 |
| 20260905200225 | 100 | 7 | 2.6 | 6.1 | 0.00 | 0.00 | 0.00 | 47 | 1012.7 |
| 20260905195503 | 100 | 340 | 2.6 | 9.6 | 0.00 | 0.00 | 0.00 | 47 | 1013.2 |
| 20260905195004 | 100 | 338 | 2.6 | 9.6 | 0.00 | 0.00 | 0.00 | 47 | 1012.9 |
| 20260905194503 | 101 | 345 | 2.6 | 9.6 | 0.00 | 0.00 | 0.00 | 46 | 1012.9 |
| 20260905194008 | 101 | 323 | 2.6 | 7.8 | 0.00 | 0.00 | 0.00 | 46 | 1013.3 |
| 20260905193717 | 101 | 314 | 2.6 | 7.8 | 0.00 | 0.00 | 0.00 | 45 | 1012.9 |
| 20260905193003 | 101 | 329 | 3.5 | 7.8 | 0.00 | 0.00 | 0.00 | 45 | 1013.4 |
| 20260905192508 | 101 | 327 | 3.5 | 7.8 | 0.00 | 0.00 | 0.00 | 44 | 1013.5 |
| 20260905192216 | 101 | 327 | 2.6 | 7.8 | 0.00 | 0.00 | 0.00 | 44 | 1013.4 |
| 20260905191508 | 102 | 1 | 2.6 | 7.0 | 0.00 | 0.00 | 0.00 | 43 | 1013.5 |
| 20260905191218 | 102 | 360 | 1.7 | 7.0 | 0.00 | 0.00 | 0.00 | 44 | 1013.3 |
| 20260905190503 | 102 | 337 | 2.6 | 7.8 | 0.00 | 0.00 | 0.00 | 45 | 1013.2 |
| 20260905190004 | 102 | 337 | 2.6 | 7.8 | 0.00 | 0.00 | 0.00 | 45 | 1013.2 |
| 20260905185508 | 101 | 12 | 1.7 | 7.8 | 0.00 | 0.00 | 0.00 | 46 | 1013.5 |
| 20260905185218 | 101 | 16 | 1.7 | 7.0 | 0.00 | 0.00 | 0.00 | 46 | 1013.4 |
| 20260905184503 | 101 | 5 | 2.6 | 7.8 | 0.00 | 0.00 | 0.00 | 47 | 1013.6 |
| 20260905184003 | 101 | 15 | 1.7 | 7.8 | 0.00 | 0.00 | 0.00 | 47 | 1013.7 |
| 20260905183717 | 101 | 7 | 1.7 | 7.8 | 0.00 | 0.00 | 0.00 | 48 | 1013.7 |
| 20260905183008 | 101 | 331 | 2.6 | 9.6 | 0.00 | 0.00 | 0.00 | 46 | 1013.7 |
| 20260905182503 | 101 | 347 | 2.6 | 9.6 | 0.00 | 0.00 | 0.00 | 46 | 1013.8 |
| 20260905182224 | 101 | 349 | 1.7 | 6.1 | 0.00 | 0.00 | 0.00 | 46 | 1013.7 |
| 20260905181503 | 101 | 330 | 1.7 | 8.7 | 0.00 | 0.00 | 0.00 | 45 | 1013.8 |
| 20260905181003 | 101 | 344 | 2.6 | 9.6 | 0.00 | 0.00 | 0.00 | 46 | 1013.8 |
| 20260905180503 | 101 | 345 | 1.7 | 9.6 | 0.00 | 0.00 | 0.00 | 47 | 1013.9 |
| 20260905180003 | 101 | 354 | 1.7 | 6.1 | 0.00 | 0.00 | 0.00 | 47 | 1014.0 |
| 20260905175503 | 101 | 328 | 1.7 | 6.1 | 0.00 | 0.00 | 0.00 | 46 | 1014.0 |
| 20260905175003 | 101 | 335 | 2.6 | 7.8 | 0.00 | 0.00 | 0.00 | 47 | 1014.0 |
| 20260905174503 | 101 | 357 | 2.6 | 7.8 | 0.00 | 0.00 | 0.00 | 47 | 1014.3 |
| 20260905174003 | 101 | 337 | 1.7 | 7.8 | 0.00 | 0.00 | 0.00 | 48 | 1014.0 |
| 20260905173503 | 100 | 328 | 1.7 | 7.0 | 0.00 | 0.00 | 0.00 | 50 | 1014.3 |
| 20260905173003 | 100 | 6 | 1.7 | 7.0 | 0.00 | 0.00 | 0.00 | 49 | 1014.2 |
| 20260905172503 | 99 | 16 | 0.9 | 3.5 | 0.00 | 0.00 | 0.00 | 49 | 1014.2 |
| 20260905172003 | 99 | 355 | 0.9 | 3.5 | 0.00 | 0.00 | 0.00 | 52 | 1014.3 |
| 20260905171716 | 98 | 357 | 0.9 | 3.5 | 0.00 | 0.00 | 0.00 | 53 | 1014.3 |
| 20260905171003 | 99 | 357 | 1.7 | 6.1 | 0.00 | 0.00 | 0.00 | 52 | 1014.0 |
| 20260905170503 | 99 | 356 | 1.7 | 6.1 | 0.00 | 0.00 | 0.00 | 51 | 1014.3 |
| 20260905170008 | 99 | 345 | 1.7 | 6.1 | 0.00 | 0.00 | 0.00 | 51 | 1014.5 |
| 20260905165503 | 99 | 351 | 1.7 | 7.0 | 0.00 | 0.00 | 0.00 | 52 | 1014.6 |
| 20260905165217 | 99 | 356 | 2.6 | 7.0 | 0.00 | 0.00 | 0.00 | 53 | 1014.4 |
| 20260905164508 | 99 | 1 | 2.6 | 7.0 | 0.00 | 0.00 | 0.00 | 52 | 1014.3 |
| 20260905164003 | 99 | 353 | 1.7 | 5.2 | 0.00 | 0.00 | 0.00 | 51 | 1014.7 |
| 20260905163503 | 98 | 264 | 1.7 | 6.1 | 0.00 | 0.00 | 0.00 | 53 | 1014.6 |
| 20260905163008 | 98 | 250 | 1.7 | 6.1 | 0.00 | 0.00 | 0.00 | 54 | 1014.5 |
| 20260905162503 | 98 | 355 | 0.9 | 2.6 | 0.00 | 0.00 | 0.00 | 56 | 1014.4 |
| 20260905162003 | 97 | 339 | 0.9 | 3.5 | 0.00 | 0.00 | 0.00 | 56 | 1014.5 |
| 20260905161503 | 97 | 292 | 1.7 | 6.1 | 0.00 | 0.00 | 0.00 | 56 | 1014.4 |
| 20260905161008 | 97 | 244 | 1.7 | 6.1 | 0.00 | 0.00 | 0.00 | 56 | 1014.6 |
| 20260905160718 | 97 | 210 | 1.7 | 6.1 | 0.00 | 0.00 | 0.00 | 56 | 1014.5 |
| 20260905160223 | 97 | 197 | 1.7 | 5.2 | 0.00 | 0.00 | 0.00 | 56 | 1014.6 |
| 20260905155503 | 97 | 321 | 1.7 | 6.1 | 0.00 | 0.00 | 0.00 | 57 | 1014.7 |
| 20260905155008 | 96 | 329 | 2.6 | 6.1 | 0.00 | 0.00 | 0.00 | 57 | 1014.6 |
| 20260905154718 | 96 | 318 | 1.7 | 6.1 | 0.00 | 0.00 | 0.00 | 59 | 1014.7 |
| 20260905154003 | 96 | 261 | 1.7 | 6.1 | 0.00 | 0.00 | 0.00 | 57 | 1014.6 |
| 20260905153503 | 95 | 272 | 1.7 | 3.5 | 0.00 | 0.00 | 0.00 | 57 | 1014.6 |
| 20260905153003 | 95 | 297 | 0.9 | 3.5 | 0.00 | 0.00 | 0.00 | 58 | 1014.6 |
| 20260905152503 | 94 | 319 | 0.9 | 3.5 | 0.00 | 0.00 | 0.00 | 58 | 1014.6 |
| 20260905152003 | 94 | 313 | 0.9 | 3.5 | 0.00 | 0.00 | 0.00 | 59 | 1014.7 |
| 20260905151503 | 94 | 281 | 0.9 | 3.5 | 0.00 | 0.00 | 0.00 | 60 | 1014.5 |
| 20260905151003 | 93 | 261 | 1.7 | 2.6 | 0.00 | 0.00 | 0.00 | 60 | 1014.5 |
| 20260905150503 | 93 | 235 | 1.7 | 2.6 | 0.00 | 0.00 | 0.00 | 61 | 1014.6 |
| 20260905150222 | 93 | 214 | 0.9 | 2.6 | 0.00 | 0.00 | 0.00 | 61 | 1014.6 |
| 20260905145720 | 92 | 211 | 0.9 | 2.6 | 0.00 | 0.00 | 0.00 | 64 | 1014.4 |
| 20260905145003 | 91 | 242 | 0.9 | 2.6 | 0.00 | 0.00 | 0.00 | 64 | 1014.4 |
| 20260905144503 | 91 | 278 | 1.7 | 3.5 | 0.00 | 0.00 | 0.00 | 64 | 1014.4 |
| 20260905144008 | 91 | 303 | 1.7 | 3.5 | 0.00 | 0.00 | 0.00 | 64 | 1014.7 |
| 20260905143503 | 90 | 325 | 0.9 | 3.5 | 0.00 | 0.00 | 0.00 | 65 | 1014.6 |
| 20260905143008 | 90 | 299 | 0.9 | 3.5 | 0.00 | 0.00 | 0.00 | 66 | 1014.4 |
| 20260905142503 | 89 | 210 | 0.9 | 3.5 | 0.00 | 0.00 | 0.00 | 66 | 1014.3 |
| 20260905142218 | 89 | 195 | 0.9 | 2.6 | 0.00 | 0.00 | 0.00 | 67 | 1014.6 |
| 20260905141503 | 88 | 226 | 0.9 | 3.5 | 0.00 | 0.00 | 0.00 | 67 | 1014.2 |